This is the latest recevied weather packets stored in our database for station/object KD7AWQ. If no packets are shown the sender has not sent any weather packets the latest 10 day(s).
| Time | Temp. | Humidity | Pressure | Rain* | Wind** | Luminosity | Snow |
|---|---|---|---|---|---|---|---|
| 1777934137 | 21.67° C | 23% | 1182.8 hPa | 0 mm | - | 338 W/m² | - |
| 1777933833 | 22.22° C | 22% | 1182.8 hPa | 0 mm | - | 375 W/m² | - |
| 1777933530 | 22.22° C | 22% | 1182.8 hPa | 0 mm | - | 411 W/m² | - |
| 1777933227 | 21.67° C | 22% | 1183 hPa | 0 mm | - | 514 W/m² | - |
| 1777932924 | 21.67° C | 23% | 1182.8 hPa | 0 mm | - | 545 W/m² | - |
| 1777932621 | 22.22° C | 23% | 1182.9 hPa | 0 mm | - | 399 W/m² | - |
| 1777932318 | 22.22° C | 22% | 1182.9 hPa | 0 mm | - | 549 W/m² | - |
| 1777932015 | 22.78° C | 23% | 1182.8 hPa | 0 mm | - | 514 W/m² | - |
| 1777931711 | 22.78° C | 22% | 1182.8 hPa | 0 mm | - | 463 W/m² | - |
| 1777931409 | 22.78° C | 21% | 1182.7 hPa | 0 mm | - | 547 W/m² | - |
| 1777931104 | 22.78° C | 22% | 1182.7 hPa | 0 mm | - | 471 W/m² | - |
| 1777930801 | 23.33° C | 20% | 1182.9 hPa | 0 mm | - | 408 W/m² | - |
| 1777930497 | 22.78° C | 19% | 1182.8 hPa | 0 mm | - | 393 W/m² | - |
| 1777930195 | 22.78° C | 19% | 1182.9 hPa | 0 mm | - | 483 W/m² | - |
| 1777929890 | 23.33° C | 19% | 1182.8 hPa | 0 mm | - | 620 W/m² | - |
| 1777929588 | 23.33° C | 19% | 1182.4 hPa | 0 mm | - | 569 W/m² | - |
| 1777929284 | 23.33° C | 19% | 1182.9 hPa | 0 mm | - | 452 W/m² | - |
| 1777928982 | 23.33° C | 19% | 1182.7 hPa | 0 mm | - | 481 W/m² | - |
| 1777928679 | 23.89° C | 19% | 1182.4 hPa | 0 mm | - | 545 W/m² | - |
| 1777928376 | 23.33° C | 20% | 1182.4 hPa | 0 mm | - | 691 W/m² | - |
| 1777928073 | 23.89° C | 20% | 1182.4 hPa | 0 mm | - | 598 W/m² | - |
| 1777927771 | 24.44° C | 19% | 1182.7 hPa | 0 mm | - | 534 W/m² | - |
| 1777927469 | 24.44° C | 18% | 1182.8 hPa | 0 mm | - | 513 W/m² | - |
| 1777927168 | 25° C | 14% | 1182.7 hPa | 0 mm | - | 486 W/m² | - |
| 1777926865 | 24.44° C | 15% | 1182.8 hPa | 0 mm | - | 571 W/m² | - |
* Rain latest hour (hover to see other rain measurements)
** Current wind speed in m/s (hover to see current wind gust speed)